DW8507 Weather Reports


time (UTC)temp
C
wind
direction
speed
KPH
gust
KPH
rain 1hr
cm
rain 24hr
cm
rain mn
cm
humidity
%
barometer
mb
20260502160156 18 0 0.0 0.0 0.00 0.00 0.00 67 1006.7
20260502151656 21 0 0.0 0.0 0.00 0.00 0.00 51 1006.6
20260502150756 21 0 0.0 0.0 0.00 0.00 0.00 51 1007.0
20260502130407 22 0 0.0 0.0 0.00 0.00 0.00 50 1009.2
20260502123456 21 0 0.0 0.0 0.00 0.00 0.00 50 1009.3
20260502122557 21 0 0.0 0.0 0.00 0.00 0.00 50 1009.7
20260502121656 21 0 0.0 0.0 0.00 0.00 0.00 50 1009.8
20260502121007 21 0 0.0 0.0 0.00 0.00 0.00 50 1009.8
20260502115856 21 0 0.0 0.0 0.00 0.00 0.00 50 1009.9
20260502114956 21 0 0.0 0.0 0.00 0.00 0.00 51 1010.2
20260502114309 21 0 0.0 0.0 0.00 0.00 0.00 51 1010.3
20260502113157 20 0 0.0 0.0 0.00 0.00 0.00 51 1010.4
20260502112256 20 0 0.0 0.0 0.00 0.00 0.00 52 1010.6
20260502111356 20 0 0.0 0.0 0.00 0.00 0.00 51 1010.7
20260502110457 20 0 0.0 0.0 0.00 0.00 0.00 50 1010.6
20260502105805 20 0 0.0 0.0 0.00 0.00 0.00 50 1010.7
20260502104657 20 0 0.0 0.0 0.00 0.00 0.00 51 1010.9
20260502103756 20 0 0.0 0.0 0.00 0.00 0.00 52 1011.3
20260502102856 19 0 0.0 0.0 0.00 0.00 0.00 54 1011.6
20260502101956 19 0 0.0 0.0 0.00 0.00 0.00 54 1011.2
20260502101056 19 0 0.0 0.0 0.00 0.00 0.00 54 1011.6
20260502100156 18 0 0.0 0.0 0.00 0.00 0.00 54 1011.6
20260502090757 17 0 0.0 0.0 0.00 0.00 0.00 70 1012.1
20260502071056 12 0 0.0 0.0 0.00 0.00 0.00 84 1012.7
20260502070155 12 0 0.0 0.0 0.00 0.00 0.00 82 1012.8
20260502065258 12 0 0.0 0.0 0.00 0.00 0.00 83 1013.0
20260502064357 12 0 0.0 0.0 0.00 0.00 0.00 87 1012.7
20260502063708 12 0 0.0 0.0 0.00 0.00 0.00 88 1012.7
20260502062555 11 0 0.0 0.0 0.00 0.00 0.00 89 1012.7
20260502061656 11 0 0.0 0.0 0.00 0.00 0.00 89 1012.8
20260502061005 11 0 0.0 0.0 0.00 0.00 0.00 89 1012.8
20260502055855 10 0 0.0 0.0 0.00 0.00 0.00 88 1012.8
20260502055205 10 0 0.0 0.0 0.00 0.00 0.00 88 1012.7
20260502054055 10 0 0.0 0.0 0.00 0.00 0.00 88 1012.8
20260502053156 9 0 0.0 0.0 0.00 0.00 0.00 88 1012.8
20260502052255 9 0 0.0 0.0 0.00 0.00 0.00 88 1012.8
20260502051356 9 0 0.0 0.0 0.00 0.00 0.00 88 1012.7
20260502050707 9 0 0.0 0.0 0.00 0.00 0.00 87 1012.8
20260502045556 9 0 0.0 0.0 0.00 0.00 0.00 87 1012.7
20260502044656 9 0 0.0 0.0 0.00 0.00 0.00 87 1012.8
20260502043756 9 0 0.0 0.0 0.00 0.00 0.00 86 1012.6
20260502042856 9 0 0.0 0.0 0.00 0.00 0.00 86 1012.7
20260502041956 9 0 0.0 0.0 0.00 0.00 0.00 86 1012.7
20260502041056 9 0 0.0 0.0 0.00 0.00 0.00 85 1012.6
20260502040155 9 0 0.0 0.0 0.00 0.00 0.00 85 1012.5
20260502035256 9 0 0.0 0.0 0.00 0.00 0.00 85 1012.8
20260502034608 10 0 0.0 0.0 0.00 0.00 0.00 84 1012.9
20260502033457 10 0 0.0 0.0 0.00 0.00 0.00 84 1012.9
20260502032557 10 0 0.0 0.0 0.00 0.00 0.00 84 1012.8
20260502031656 10 0 0.0 0.0 0.00 0.00 0.00 84 1012.8
20260502031007 10 0 0.0 0.0 0.00 0.00 0.00 84 1012.9
20260502025857 10 0 0.0 0.0 0.00 0.00 0.00 83 1013.0
20260502024956 10 0 0.0 0.0 0.00 0.00 0.00 83 1012.9
20260502024057 10 0 0.0 0.0 0.00 0.00 0.00 83 1013.0
20260502023407 10 0 0.0 0.0 0.00 0.00 0.00 83 1012.9
20260502022255 11 0 0.0 0.0 0.00 0.00 0.00 83 1013.1
20260502021355 11 0 0.0 0.0 0.00 0.00 0.00 83 1013.1
20260502020709 11 0 0.0 0.0 0.00 0.00 0.00 82 1013.1
20260502015557 11 0 0.0 0.0 0.00 0.00 0.00 82 1012.9
20260502014657 11 0 0.0 0.0 0.00 0.00 0.00 82 1013.0
20260502014006 11 0 0.0 0.0 0.00 0.00 0.00 82 1012.9
20260502012855 11 0 0.0 0.0 0.00 0.00 0.00 81 1013.1
20260502011956 12 0 0.0 0.0 0.00 0.00 0.00 81 1013.0
20260502011055 12 0 0.0 0.0 0.00 0.00 0.00 77 1013.0
20260502010156 12 0 0.0 0.0 0.00 0.00 0.00 77 1013.1
20260502005256 12 0 0.0 0.0 0.00 0.00 0.00 77 1013.3
20260502004605 12 0 0.0 0.0 0.00 0.00 0.00 77 1013.6
20260502003456 13 0 0.0 0.0 0.00 0.00 0.00 77 1013.3
20260502002557 13 0 0.0 0.0 0.00 0.00 0.00 76 1013.8
20260502001656 13 0 0.0 0.0 0.00 0.00 0.00 76 1013.9
20260502001009 13 0 0.0 0.0 0.00 0.00 0.00 76 1014.1
20260501235855 13 0 0.0 0.0 0.00 0.00 0.00 75 1013.8
20260501234955 13 0 0.0 0.0 0.00 0.00 0.00 75 1013.9
20260501234306 13 0 0.0 0.0 0.00 0.00 0.00 75 1013.8
20260501233155 13 0 0.0 0.0 0.00 0.00 0.00 74 1013.8
20260501232256 14 0 0.0 0.0 0.00 0.00 0.00 74 1014.0
20260501231357 14 0 0.0 0.0 0.00 0.00 0.00 74 1014.0
20260501230457 14 0 0.0 0.0 0.00 0.00 0.00 74 1013.9
20260501225556 14 0 0.0 0.0 0.00 0.00 0.00 74 1014.1
20260501224656 15 0 0.0 0.0 0.00 0.00 0.00 74 1013.7
20260501223756 15 0 0.0 0.0 0.00 0.00 0.00 74 1013.7
20260501222855 15 0 0.0 0.0 0.00 0.00 0.00 74 1013.7
20260501221956 15 0 0.0 0.0 0.00 0.00 0.00 74 1013.7
20260501221055 15 0 0.0 0.0 0.00 0.00 0.00 74 1013.9
20260501220155 16 0 0.0 0.0 0.00 0.00 0.00 76 1013.9
20260501215256 16 0 0.0 0.0 0.00 0.00 0.00 77 1013.9
20260501214355 16 0 0.0 0.0 0.00 0.00 0.00 78 1013.9
20260501213709 16 0 0.0 0.0 0.00 0.00 0.00 78 1013.9
20260501212555 16 0 0.0 0.0 0.00 0.00 0.00 78 1013.8
20260501211655 16 0 0.0 0.0 0.00 0.00 0.00 77 1013.8
20260501210755 16 0 0.0 0.0 0.00 0.00 0.00 77 1013.7
20260501205855 16 0 0.0 0.0 0.00 0.00 0.00 77 1013.6
20260501204957 16 0 0.0 0.0 0.00 0.00 0.00 78 1013.6
20260501204055 16 0 0.0 0.0 0.00 0.00 0.00 78 1013.6
20260501203157 16 0 0.0 0.0 0.00 0.00 0.00 78 1013.5
20260501202257 16 0 0.0 0.0 0.00 0.00 0.00 77 1013.7
20260501201356 16 0 0.0 0.0 0.00 0.00 0.00 76 1013.5
20260501200456 16 0 0.0 0.0 0.00 0.00 0.00 75 1013.6
20260501195556 16 0 0.0 0.0 0.00 0.00 0.00 74 1013.6
20260501194907 17 0 0.0 0.0 0.00 0.00 0.00 74 1013.4
20260501193757 17 0 0.0 0.0 0.00 0.00 0.00 73 1013.5
20260501192855 17 0 0.0 0.0 0.00 0.00 0.00 70 1013.3
20260501191955 17 0 0.0 0.0 0.00 0.00 0.00 68 1013.4
20260501191057 18 0 0.0 0.0 0.00 0.00 0.00 66 1013.3
20260501190157 18 0 0.0 0.0 0.00 0.00 0.00 66 1013.0
20260501185257 18 0 0.0 0.0 0.00 0.00 0.00 66 1013.0
20260501184356 18 0 0.0 0.0 0.00 0.00 0.00 66 1013.1
20260501183455 19 0 0.0 0.0 0.00 0.00 0.00 65 1012.8
20260501182555 19 0 0.0 0.0 0.00 0.00 0.00 65 1012.9
20260501181656 19 0 0.0 0.0 0.00 0.00 0.00 66 1012.9
20260501180755 20 0 0.0 0.0 0.00 0.00 0.00 65 1013.0
20260501175855 20 0 0.0 0.0 0.00 0.00 0.00 64 1013.0
20260501175208 20 0 0.0 0.0 0.00 0.00 0.00 63 1013.0
20260501174055 20 0 0.0 0.0 0.00 0.00 0.00 63 1012.7
20260501173407 20 0 0.0 0.0 0.00 0.00 0.00 63 1012.9
20260501172255 21 0 0.0 0.0 0.00 0.00 0.00 62 1012.9
20260501171607 21 0 0.0 0.0 0.00 0.00 0.00 63 1012.8
20260501170456 21 0 0.0 0.0 0.00 0.00 0.00 64 1013.0
20260501165556 21 0 0.0 0.0 0.00 0.00 0.00 64 1012.9
20260501164655 21 0 0.0 0.0 0.00 0.00 0.00 65 1012.8
20260501163755 21 0 0.0 0.0 0.00 0.00 0.00 66 1012.9
20260501162855 21 0 0.0 0.0 0.00 0.00 0.00 65 1012.9
20260501161955 21 0 0.0 0.0 0.00 0.00 0.00 63 1013.0
20260501161055 21 0 0.0 0.0 0.00 0.00 0.00 65 1013.0